Sister Bay, Wisconsin, United States (54234)
Lat: 45.19N, Lon: 87.12W
Wx Zone: WIZ022
Local Info
Past Weather Observations for Saturday, October 25, 2014

NOTE: This archive is for the closest National Weather Service station to Sister Bay. Information may differ from the station used for current weather conditions.

Click here for Long-term Archive

Time Weather Temperature Dewpoint Humidity Pressure Winds Precip Visibility
23:55
Clear
41°F / 5°C 27°F / -3°C 57% 29.95 in
(1014 mb)
WNW 9.2 mph
(WNW 15 kph)
- 10SM
23:35
Clear
41°F / 5°C 27°F / -3°C 57% 29.95 in
(1014 mb)
W 10.4 mph
(W 17 kph)
- 10SM
23:15
Clear
41°F / 5°C 27°F / -3°C 57% 29.95 in
(1014 mb)
W 8.1 mph
(W 13 kph)
- 10SM
22:55
Clear
41°F / 5°C 27°F / -3°C 57% 29.95 in
(1014 mb)
WNW 8.1 mph
(WNW 13 kph)
- 10SM
22:35
Clear
41°F / 5°C 27°F / -3°C 57% 29.95 in
(1014 mb)
WNW 6.9 mph
(WNW 11 kph)
- 10SM
22:15
Clear
41°F / 5°C 27°F / -3°C 57% 29.95 in
(1014 mb)
W 6.9 mph
(W 11 kph)
- 10SM
21:55
Clear
43°F / 6°C 27°F / -3°C 53% 29.95 in
(1014 mb)
WNW 9.2 mph
(WNW 15 kph)
- 10SM
21:35
Clear
45°F / 7°C 27°F / -3°C 49% 29.95 in
(1014 mb)
NW 8.1 mph
(NW 13 kph)
- 10SM
21:15
Clear
46°F / 8°C 25°F / -4°C 43% 29.95 in
(1014 mb)
NW 9.2 mph
(NW 15 kph)
- 10SM
20:55
Clear
46°F / 8°C 25°F / -4°C 43% 29.95 in
(1014 mb)
NW 9.2 mph
(NW 15 kph)
- 10SM
20:35
Clear
46°F / 8°C 25°F / -4°C 43% 29.95 in
(1014 mb)
NW 9.2 mph
(NW 15 kph)
- 10SM
20:15
Clear
48°F / 9°C 23°F / -5°C 37% 29.92 in
(1013 mb)
NW 9.2 mph
(NW 15 kph)
- 10SM
19:55
Clear
48°F / 9°C 25°F / -4°C 40% 29.92 in
(1013 mb)
NW 10.4 mph
(NW 17 kph)
- 10SM
19:35
Clear
48°F / 9°C 25°F / -4°C 40% 29.92 in
(1013 mb)
NW 8.1 mph
(NW 13 kph)
- 10SM
19:15
Clear
48°F / 9°C 25°F / -4°C 40% 29.92 in
(1013 mb)
NW 15 mph
(NW 24 kph)
- 10SM
18:55
Clear
48°F / 9°C 25°F / -4°C 40% 29.92 in
(1013 mb)
NW 10.4 mph
(NW 17 kph)
- 10SM
18:35
Clear
50°F / 10°C 25°F / -4°C 37% 29.92 in
(1013 mb)
NW 11.5 mph
(NW 19 kph)
- 10SM
18:15
Clear
50°F / 10°C 25°F / -4°C 37% 29.92 in
(1013 mb)
WNW 10.4 mph
(WNW 17 kph)
- 10SM
17:55
Clear
50°F / 10°C 25°F / -4°C 37% 29.89 in
(1012 mb)
NW 13.8 mph
(NW 22 kph)
- 10SM
17:35
Clear
52°F / 11°C 25°F / -4°C 35% 29.89 in
(1012 mb)
WNW 13.8 mph
(WNW 22 kph)
- 10SM
17:15
Clear
54°F / 12°C 25°F / -4°C 33% 29.89 in
(1012 mb)
WNW 11.5 mph
(WNW 19 kph)
- 10SM
16:55
Clear
54°F / 12°C 25°F / -4°C 33% 29.89 in
(1012 mb)
NW 19.6 mph
(NW 32 kph)
- 10SM
16:35
Clear
55°F / 13°C 25°F / -4°C 31% 29.89 in
(1012 mb)
NW 17.3 mph
(NW 28 kph)
- 10SM
16:15
Clear
55°F / 13°C 27°F / -3°C 33% 29.89 in
(1012 mb)
NW 15 mph
(NW 24 kph)
- 10SM
15:55
Clear
57°F / 14°C 25°F / -4°C 29% 29.86 in
(1011 mb)
NW 16.1 mph
(NW 26 kph)
- 10SM
15:35
Clear
57°F / 14°C 27°F / -3°C 31% 29.86 in
(1011 mb)
NW 21.9 mph
(NW 35 kph)
- 10SM
15:15
Clear
57°F / 14°C 27°F / -3°C 31% 29.86 in
(1011 mb)
NW 18.4 mph
(NW 30 kph)
- 10SM
14:55
Clear
57°F / 14°C 27°F / -3°C 31% 29.86 in
(1011 mb)
NW 18.4 mph
(NW 30 kph)
- 10SM
14:35
Clear
59°F / 15°C 28°F / -2°C 31% 29.86 in
(1011 mb)
WNW 23 mph
(WNW 37 kph)
- 10SM
14:15
Clear
59°F / 15°C 28°F / -2°C 31% 29.86 in
(1011 mb)
WNW 18.4 mph
(WNW 30 kph)
- 10SM
13:55
Clear
59°F / 15°C 28°F / -2°C 31% 29.86 in
(1011 mb)
WNW 15 mph
(WNW 24 kph)
- 10SM
13:35
Clear
59°F / 15°C 28°F / -2°C 31% 29.86 in
(1011 mb)
NW 19.6 mph
(NW 32 kph)
- 10SM
13:15
Clear
59°F / 15°C 30°F / -1°C 34% 29.86 in
(1011 mb)
WNW 20.7 mph
(WNW 33 kph)
- 10SM
12:55
Clear
59°F / 15°C 30°F / -1°C 34% 29.86 in
(1011 mb)
NW 18.4 mph
(NW 30 kph)
- 10SM
12:35
Clear
57°F / 14°C 30°F / -1°C 36% 29.86 in
(1011 mb)
W 18.4 mph
(W 30 kph)
- 10SM
12:15
Clear
57°F / 14°C 32°F / 0°C 39% 29.86 in
(1011 mb)
NW 17.3 mph
(NW 28 kph)
- 10SM
11:55
Clear
57°F / 14°C 32°F / 0°C 39% 29.86 in
(1011 mb)
NW 18.4 mph
(NW 30 kph)
- 10SM
11:35
Clear
57°F / 14°C 32°F / 0°C 39% 29.86 in
(1011 mb)
NW 18.4 mph
(NW 30 kph)
- 10SM
11:15
Clear
57°F / 14°C 32°F / 0°C 39% 29.86 in
(1011 mb)
NW 18.4 mph
(NW 30 kph)
- 10SM
10:55
Clear
57°F / 14°C 34°F / 1°C 41% 29.86 in
(1011 mb)
NW 20.7 mph
(NW 33 kph)
- 10SM
10:35
Clear
55°F / 13°C 32°F / 0°C 41% 29.86 in
(1011 mb)
NW 19.6 mph
(NW 32 kph)
- 10SM
10:15
Clear
55°F / 13°C 34°F / 1°C 44% 29.86 in
(1011 mb)
NW 19.6 mph
(NW 32 kph)
- 10SM
09:55
Clear
54°F / 12°C 34°F / 1°C 47% 29.86 in
(1011 mb)
NW 18.4 mph
(NW 30 kph)
- 10SM
09:35
Clear
54°F / 12°C 34°F / 1°C 47% 29.86 in
(1011 mb)
NW 20.7 mph
(NW 33 kph)
- 10SM
09:15
Clear
52°F / 11°C 36°F / 2°C 54% 29.86 in
(1011 mb)
NW 18.4 mph
(NW 30 kph)
- 10SM
08:55
Clear
52°F / 11°C 36°F / 2°C 54% 29.86 in
(1011 mb)
NW 17.3 mph
(NW 28 kph)
- 10SM
08:35
Clear
50°F / 10°C 37°F / 3°C 62% 29.86 in
(1011 mb)
NW 18.4 mph
(NW 30 kph)
- 10SM
08:15
Clear
50°F / 10°C 37°F / 3°C 62% 29.86 in
(1011 mb)
NW 18.4 mph
(NW 30 kph)
- 10SM
07:55
Clear
50°F / 10°C 37°F / 3°C 62% 29.86 in
(1011 mb)
NW 16.1 mph
(NW 26 kph)
- 10SM
07:35
Clear
48°F / 9°C 39°F / 4°C 71% 29.86 in
(1011 mb)
NW 13.8 mph
(NW 22 kph)
- 10SM
07:15
Clear
46°F / 8°C 39°F / 4°C 76% 29.86 in
(1011 mb)
WNW 9.2 mph
(WNW 15 kph)
- 10SM
06:55
Clear
46°F / 8°C 39°F / 4°C 76% 29.83 in
(1010 mb)
W 9.2 mph
(W 15 kph)
- 10SM
06:35
Clear
45°F / 7°C 41°F / 5°C 87% 29.83 in
(1010 mb)
W 8.1 mph
(W 13 kph)
- 10SM
06:15
Clear
45°F / 7°C 41°F / 5°C 87% 29.83 in
(1010 mb)
W 8.1 mph
(W 13 kph)
- 10SM
05:55
Clear
46°F / 8°C 41°F / 5°C 82% 29.83 in
(1010 mb)
W 9.2 mph
(W 15 kph)
- 10SM
05:35
Clear
46°F / 8°C 43°F / 6°C 87% 29.83 in
(1010 mb)
W 8.1 mph
(W 13 kph)
- 10SM
05:15
Clear
48°F / 9°C 45°F / 7°C 87% 29.83 in
(1010 mb)
W 9.2 mph
(W 15 kph)
- 10SM
04:55
Clear
48°F / 9°C 45°F / 7°C 87% 29.83 in
(1010 mb)
WNW 9.2 mph
(WNW 15 kph)
- 10SM
04:35
Clear
50°F / 10°C 46°F / 8°C 88% 29.83 in
(1010 mb)
WNW 10.4 mph
(WNW 17 kph)
- 10SM
04:15
Clear
50°F / 10°C 48°F / 9°C 94% 29.83 in
(1010 mb)
W 9.2 mph
(W 15 kph)
- 7SM
03:55
Clear
50°F / 10°C 48°F / 9°C 94% 29.8 in
(1009 mb)
W 9.2 mph
(W 15 kph)
- 7SM
03:35
Clear
Fog And Mist
50°F / 10°C 50°F / 10°C 100% 29.8 in
(1009 mb)
W 9.2 mph
(W 15 kph)
- 5SM
03:15
Clear
Fog And Mist
52°F / 11°C 50°F / 10°C 94% 29.8 in
(1009 mb)
W 11.5 mph
(W 19 kph)
- 5SM
02:55
Clear
Fog And Mist
52°F / 11°C 50°F / 10°C 94% 29.8 in
(1009 mb)
W 10.4 mph
(W 17 kph)
- 5SM
02:35
Partly Cloudy
Fog And Mist
52°F / 11°C 52°F / 11°C 100% 29.8 in
(1009 mb)
W 11.5 mph
(W 19 kph)
- 5SM
02:15
Mostly Cloudy
Fog And Mist
52°F / 11°C 52°F / 11°C 100% 29.8 in
(1009 mb)
W 9.2 mph
(W 15 kph)
- 5SM
01:55
Mostly Cloudy
Fog And Mist
52°F / 11°C 52°F / 11°C 100% 29.83 in
(1010 mb)
W 10.4 mph
(W 17 kph)
- 5SM
01:35
Mostly Cloudy
Fog And Mist
54°F / 12°C 52°F / 11°C 94% 29.8 in
(1009 mb)
W 12.7 mph
(W 20 kph)
- 5SM
01:15
Overcast
Fog And Mist
54°F / 12°C 52°F / 11°C 94% 29.8 in
(1009 mb)
W 10.4 mph
(W 17 kph)
- 5SM
00:55
Overcast
Fog And Mist
54°F / 12°C 52°F / 11°C 94% 29.8 in
(1009 mb)
SSW 9.2 mph
(SSW 15 kph)
- 5SM
00:35
Overcast
Fog And Mist
54°F / 12°C 52°F / 11°C 94% 29.8 in
(1009 mb)
SSW 11.5 mph
(SSW 19 kph)
- 5SM
00:15
Overcast
Fog And Mist
54°F / 12°C 52°F / 11°C 94% 29.8 in
(1009 mb)
SSW 12.7 mph
(SSW 20 kph)
- 5SM
Time Weather Temperature Dewpoint Humidity Pressure Winds Precip Visibility


Weather for websites

WeatherForYou.com, LLC is not responsible for any damages or problems caused by this service. Current weather conditions are obtained from the closest station including government and personal stations which may have varying degrees of accuracy. Weather forecasts are derived from the NOAA NDFD. Like all things, this site belongs to Jesus Christ... He just trusts me to maintain it. If you have any questions or comments email webmaster@weatherforyou.com

Copyright © 2014, WeatherForYou.com LLC. All rights reserved.